| time (UTC) | temp F | wind direction | speed knots | gust knots | rain 1hr in | rain 24hr in | rain mn in | humidity % | barometer mb |
| 20260504100108 | 0 | 0.0 | 0.0 | 0.00 | 0.00 | 0.00 | 1013.6 | ||
| 20260504081529 | 0 | 0.0 | 0.0 | 0.00 | 0.00 | 0.00 | 1014.2 | ||
| 20260504044527 | 0 | 0.0 | 0.0 | 0.00 | 0.00 | 0.00 | 1015.8 | ||
| 20260504043023 | 0 | 0.0 | 0.0 | 0.00 | 0.00 | 0.00 | 1015.6 | ||
| 20260504041518 | 0 | 0.0 | 0.0 | 0.00 | 0.00 | 0.00 | 1015.7 | ||
| 20260504040034 | 49 | 207 | 0.0 | 0.0 | 0.00 | 0.00 | 0.00 | 32 | 1015.8 |
| 20260504034509 | 48 | 207 | 0.0 | 0.0 | 0.00 | 0.00 | 0.00 | 37 | 1015.6 |
| 20260504033005 | 48 | 207 | 0.0 | 0.0 | 0.00 | 0.00 | 0.00 | 42 | 1015.8 |
| 20260504031501 | 49 | 207 | 0.0 | 0.0 | 0.00 | 0.00 | 0.00 | 45 | 1015.7 |
| 20260504030056 | 49 | 207 | 0.0 | 0.0 | 0.00 | 0.00 | 0.00 | 45 | 1015.6 |
| 20260504024553 | 49 | 207 | 0.0 | 0.0 | 0.00 | 0.00 | 0.00 | 50 | 1015.7 |
| 20260504023057 | 49 | 207 | 0.0 | 0.0 | 0.00 | 0.00 | 0.00 | 53 | 1015.6 |
| 20260504021545 | 49 | 207 | 0.0 | 0.0 | 0.00 | 0.00 | 0.00 | 56 | 1015.4 |
| 20260504020039 | 50 | 207 | 0.0 | 0.0 | 0.00 | 0.00 | 0.00 | 59 | 1015.2 |
| 20260504014537 | 51 | 207 | 0.0 | 0.0 | 0.00 | 0.00 | 0.00 | 61 | 1015.2 |
| 20260504013031 | 51 | 207 | 0.0 | 0.0 | 0.00 | 0.00 | 0.00 | 61 | 1015.2 |
| 20260504011526 | 53 | 207 | 0.0 | 0.0 | 0.00 | 0.00 | 0.00 | 58 | 1015.1 |
| 20260504010021 | 54 | 207 | 0.0 | 0.0 | 0.00 | 0.00 | 0.00 | 55 | 1015.2 |
| 20260504004521 | 56 | 207 | 0.0 | 0.0 | 0.00 | 0.00 | 0.00 | 53 | 1015.0 |
| 20260504003013 | 57 | 207 | 0.0 | 0.0 | 0.00 | 0.00 | 0.00 | 48 | 1015.0 |
| 20260504001508 | 58 | 207 | 0.0 | 0.0 | 0.00 | 0.00 | 0.00 | 42 | 1015.1 |
| 20260504000004 | 59 | 207 | 0.0 | 0.0 | 0.00 | 0.00 | 0.00 | 40 | 1015.0 |
| 20260503234600 | 59 | 207 | 0.0 | 0.0 | 0.00 | 0.00 | 0.00 | 39 | 1014.9 |
| 20260503233055 | 60 | 207 | 0.0 | 7.8 | 0.00 | 0.00 | 0.00 | 40 | 1015.1 |
| 20260503231551 | 61 | 155 | 0.0 | 7.0 | 0.00 | 0.00 | 0.00 | 39 | 1015.1 |
| 20260503230052 | 61 | 157 | 0.0 | 6.1 | 0.00 | 0.00 | 0.00 | 40 | 1015.3 |
| 20260503224545 | 62 | 89 | 0.0 | 7.8 | 0.00 | 0.00 | 0.00 | 38 | 1015.5 |
| 20260503223038 | 62 | 186 | 0.9 | 5.2 | 0.00 | 0.00 | 0.00 | 38 | 1015.6 |
| 20260503221534 | 63 | 250 | 0.0 | 7.0 | 0.00 | 0.00 | 0.00 | 37 | 1015.5 |
| 20260503220029 | 63 | 282 | 0.0 | 0.9 | 0.00 | 0.00 | 0.00 | 36 | 1015.6 |
| 20260503214524 | 64 | 281 | 0.0 | 5.2 | 0.00 | 0.00 | 0.00 | 35 | 1015.8 |
| 20260503213021 | 65 | 276 | 0.0 | 5.2 | 0.00 | 0.00 | 0.00 | 36 | 1015.9 |
| 20260503211516 | 66 | 304 | 0.9 | 7.0 | 0.00 | 0.00 | 0.00 | 34 | 1015.8 |
| 20260503210011 | 66 | 103 | 0.0 | 7.8 | 0.00 | 0.00 | 0.00 | 37 | 1016.0 |
| 20260503204507 | 66 | 341 | 0.0 | 7.0 | 0.00 | 0.00 | 0.00 | 36 | 1016.1 |
| 20260503203003 | 66 | 232 | 0.0 | 10.4 | 0.00 | 0.00 | 0.00 | 33 | 1016.5 |
| 20260503201558 | 65 | 201 | 0.0 | 3.5 | 0.00 | 0.00 | 0.00 | 34 | 1016.7 |
| 20260503200059 | 65 | 232 | 0.0 | 11.3 | 0.00 | 0.00 | 0.00 | 39 | 1016.9 |
| 20260503194550 | 65 | 301 | 0.0 | 5.2 | 0.00 | 0.00 | 0.00 | 36 | 1017.2 |
| 20260503193049 | 65 | 221 | 0.0 | 7.0 | 0.00 | 0.00 | 0.00 | 35 | 1017.5 |
| 20260503191540 | 65 | 227 | 0.0 | 7.8 | 0.00 | 0.00 | 0.00 | 36 | 1017.9 |
| 20260503190041 | 64 | 204 | 0.0 | 5.2 | 0.00 | 0.00 | 0.00 | 39 | 1018.3 |
| 20260503184533 | 64 | 62 | 2.6 | 10.4 | 0.00 | 0.00 | 0.00 | 38 | 1018.6 |
| 20260503183027 | 63 | 302 | 0.0 | 1.7 | 0.00 | 0.00 | 0.00 | 37 | 1018.9 |
| 20260503181523 | 62 | 302 | 0.0 | 7.0 | 0.00 | 0.00 | 0.00 | 38 | 1019.1 |
| 20260503180020 | 61 | 183 | 0.0 | 7.8 | 0.00 | 0.00 | 0.00 | 39 | 1019.2 |
| 20260503174515 | 61 | 133 | 3.5 | 7.8 | 0.00 | 0.00 | 0.00 | 41 | 1019.6 |
| 20260503173020 | 60 | 285 | 0.0 | 7.0 | 0.00 | 0.00 | 0.00 | 41 | 1019.7 |
| 20260503171512 | 59 | 277 | 0.0 | 6.1 | 0.00 | 0.00 | 0.00 | 39 | 1019.7 |